Location: San Martino di Castrozza
(46.2667°N, 11.8000°E)
Time: 02:28:23
(UTC+00:00)

NOSS 3-4 (C) - Pass Details

Date: 23 April 2021
Orbit: 873 x 1339 km, 63.4° (Epoch: 06 May)

Event Time Altitude Azimuth Distance (km) Brightness Sun altitude
Rises 02:08:10 0° 318° (NW) 3,846 6.6 -19.0°
Reaches altitude 10° 02:10:46 10° 313° (NW) 2,953 6.0 -18.7°
Maximum altitude 02:17:34 52° 240° (WSW) 1,449 4.0 -17.8°
Drops below altitude 10° 02:25:06 10° 167° (SSE) 3,252 6.0 -16.9°
Sets 02:28:05 0° 163° (SSE) 4,263 6.6 -16.5°
